星链-6250 (STARLINK-6250 )

导读 | 星芒AI

STARLINK-6250 是 SpaceX Starlink 卫星互联网项目中的第6250颗卫星,属于低轨卫星群的一部分,旨在为全球用户提供高速互联网服务。该卫星采用先进推进系统和激光通信技术,提升网络稳定性和传输效率。其发射有助于扩大 Starlink 的覆盖范围,特别是在偏远和网络基础设施薄弱地区。STARLINK-6250 的部署进一步推动了 SpaceX 构建全球宽带网络的目标。

基本信息
目录编号:
57230
目录名称:
STARLINK-6250
国际标识:
2023-094N
轨道中心:
EARTH
卫星名称:
星链-6250
卫星全名:
星链-6250 (STARLINK-6250 )
卫星状态:
在轨 (已飞行850 天)
发射日期:
2023-07-07 UTC
国别 :
美国 (US)
星等 :
--
轨道信息
数据来源 国际轨道数据 AOE轨道数据
星历时间 2025-11-02T19:18:07+0800
1天前
查看轨道信息
2025-11-03T07:00:00+0800
1天前
查看轨道信息
半长轴 6937.151km 6937.188km
偏心率 0.0001635 0.0002253
轨道倾角 43.006° 43.002°
近地点辐角 272.011° 253.229°
升交点赤经 1.543° 358.895°
平近点角 88.054° 226.356°
近地点 557.881km 557.49km
远地点 560.151km 560.616km
周期 95.837分钟 95.837分钟
每日圈数 15.025576 15.025454
详细信息
固有亮度:
5
最大亮度:
2.4
卫星平台:
Starlink v1.5
覆盖范围:
全球
运营商:
太空探索技术公司
运营商所在国:
美国
制造商(研发单位):
太空探索技术公司
制造商所在国:
美国
使用方式:
暂无
卫星简介
星链(Starlink)计划是由太空探索技术公司(SpaceX)提出的一个巨型低轨卫星互联网星座项目,计划在2019年至2024年间在太空搭建由约1.2万颗卫星组成的“星链”网络,其中1584颗将部署在地球上空550千米处的近地轨道,并从2020年开始工作。该卫星仍在工作。
2D轨道图
3D轨道图
轨道高度分析图
轨道倾角分析图
轨道综合分析图
查看轨道综合分析图